DELTA 1 DEB, 28443

Orbit data source: Space-Track

DELTA 1 DEB, 28443 is space debris in LEO originally from a launch on Thu, 08 Feb 1962 UTC launched from the Air Force Eastern Test Range (AFETR). Debris objects in space refer to the collection of defunct objects orbiting the Earth. Examples of debris include non-operational satellites, rocket bodies, and fragments generated from explosions, collisions, or faulty payload assembly.

Loading next visibility...
Identifier
28443, 1962-002E
Orbit
LEO
Country
Flag of USUS
Related business
Manufacturer
LM/EW
Mission
Spacecraft
Bus & Motor
Unknown
Mass
Unknown
Launch date (UTC)
1962-02-08 (64 years ago)
Launch vehicle
Unknown
Launch site
Air Force Eastern Test Range (AFETR)
Object type
Payload
Rocket body
Debris
Shape & HBR
Unknown shape, 0.1 m
Radar Cross Section
Small (<0.1 m²)

Expand to show TLE details & history
Last TLE update: 1 day ago

TLE from 1 day ago
0 DELTA 1 DEB
1 28443U 62002E   26124.47784845  .00000454  00000-0  13262-3 0  9993
2 28443  48.2688 277.8440 0070885  69.3150 332.8379 14.58790071300968
Epoch: 2026-05-04T11:28Z
TLE epoch observation values (Epoch: 2026-05-04T11:28:06.106Z)
Latitude
29.91578°
Longitude
-85.8549°
Altitude
653.702 km
Speed
7.559 km/s
True Right ascension
20h 34m 08s
True Declination
29° 45' 55"
Sunlit
Object was in daylight at epoch
Visualization orbit readout
Latitude
Unknown
Longitude
Unknown
Altitude
Unknown
Speed
Unknown
Apparent Right ascension
Unknown
Apparent Declination
Unknown
Sunlit
N/A
Visualization observer readout
Local Sidereal Time
05:49:30
Azimuth
Unknown
Elevation
Unknown
Doppler factor
Unknown
Orbital elements
Apogee altitude
748.273 km
Perigee altitude
647.953 km
Semi-major axis
7,076.25 km
Eccentricity
0.00709
Inclination
48.2688°
RAAN
277.844°
Arg. of periapsis
69.315°
True anomaly
332.46414°
Mean anomaly
332.8379°
Eccentric anomaly
332.65132°
Mean motion
3.64618 °/min
Orbital period
98.73 mins
BSTAR
0.00013262
Loading maneuver chart data...
Computing Atmospheric mass density...
Loading historical data...
Loading historical data...
Loading historical data...
Loading historical data...
Loading historical data...
Loading historical data...
Loading historical data...
Other satellites on launch #2 in the year 1962 (1962-02-08 UTC)

Documentation

Showing up to 5 results
|